Location: Arrakis Observatory
(44.1122°N, 95.7153°W)
Time: 01:51:39
(UTC-05:00)

Daily predictions for brighter satellites

Satellite Brightness Start Highest point End
(mag) Time Altitude Azimuth Time Altitude Azimuth Time Altitude Azimuth
ATLAS 2AS CENTAUR R/B 4.1 02:37:57 38° NE 02:37:57 38° NE 02:42:36 10° NE
Resurs 1-4 Rocket 4.5 03:07:06 10° NE 03:09:10 18° ENE 03:09:10 18° ENE
Cosmos 2333 Rocket 4.2 03:34:45 10° NNW 03:36:54 22° N 03:36:54 22° N
Lacrosse 5 rocket 4.1 03:49:25 18° NE 03:49:25 18° NE 03:50:40 10° NE
SL-16 R/B 3.6 03:52:16 38° N 03:52:16 38° N 03:55:59 10° NNW
ARIANE 5 R/B 4.1 03:52:15 10° NNE 03:54:51 30° NNE 03:54:51 30° NNE
Cosmos 2237 Rocket 3.3 03:57:01 10° NNW 04:05:43 23° ESE 04:07:53 10° SE
ATLAS 5 CENTAUR R/B 2.9 04:04:00 56° NE 04:04:01 56° NE 04:10:19 10° SE
NOSS 3-4 (A) 4.2 04:05:23 47° ESE 04:05:23 47° ESE 04:11:29 10° NE
NOSS 3-4 (C) 4.2 04:05:28 47° ESE 04:05:28 47° ESE 04:11:35 10° NE
Cosmos 1680 Rocket 4.4 04:07:11 10° N 04:12:17 45° ENE 04:17:18 10° SE
Cosmos 2219 4.2 04:21:33 38° N 04:21:33 38° N 04:25:16 10° NNE
Okean O Rocket 3.3 04:18:16 10° NE 04:22:05 28° E 04:22:15 28° E
SL-16 R/B 3.8 04:17:36 10° N 04:22:43 33° NE 04:27:47 10° ESE
ATLAS 2AS CENTAUR R/B 3.9 04:25:24 33° NW 04:26:22 34° NW 04:33:40 10° NNE
CZ-2D R/B 2.8 04:23:57 10° N 04:27:41 47° N 04:27:41 47° N
Cosmos 2227 Rocket 2.4 04:35:40 62° SE 04:36:06 64° ESE 04:41:43 10° NNE
Meteor 2-8 Rocket 4.4 04:41:12 64° S 04:42:14 85° E 04:48:24 10° N
RESURS DK-1 3.4 04:45:28 44° E 04:45:28 44° E 04:48:55 10° NE
Cosmos 2297 Rocket 2.7 04:43:50 43° SSE 04:45:17 55° ESE 04:50:49 10° NNE
Okean 1-7 Rocket 4.4 04:48:46 45° N 04:48:46 45° N 04:51:51 10° N
Resurs 1-4 Rocket 2.8 04:46:17 10° N 04:50:15 41° NNW 04:50:15 41° NNW
Tiangong 1 3.9 04:53:55 17° E 04:53:55 17° E 04:54:45 10° E
NOSS 3-2 (A) 3.9 04:45:00 10° NW 04:52:23 62° WSW 05:00:18 10° SSE
CZ-2C R/B 3.9 04:51:41 31° SSE 04:53:47 69° ENE 04:58:25 10° N
PSLV R/B 4.0 04:57:27 10° NNE 05:01:21 75° ENE 05:01:21 75° ENE
Cosmos 292 Rocket 4.1 04:58:45 10° NNW 05:03:38 68° ENE 05:08:27 10° SSE
Lacrosse 5 1.7 05:06:15 72° WSW 05:06:45 81° NW 05:11:50 10° NE
BREEZE M DEB (TANK) 2.5 05:09:00 66° NNW 05:09:00 66° NNW 05:15:48 10° ENE
Cosmos 2344 3.9 05:07:13 40° W 05:09:58 58° NW 05:18:59 10° NE
MOZ.5/SAFIR/RUBIN 5/SL-8 3.9 05:12:09 55° WNW 05:12:09 55° WNW 05:16:14 10° NNW
USA 215 4.1 05:08:25 10° S 05:12:33 30° SSW 05:12:33 30° SSW
DELTA 2 R/B (1) 4.3 05:13:35 34° SSW 05:14:52 39° SSE 05:20:00 10° E
Cosmos 1727 Rocket 3.9 05:13:05 38° SSW 05:15:34 66° W 05:21:53 10° N
Cosmos 724 4.4 05:09:39 10° NNW 05:15:55 84° ENE 05:22:10 10° SE
Cosmos 2082 3.6 05:15:38 49° WSW 05:17:02 67° WNW 05:22:39 10° NNE
PAYLOAD B 4.2 05:12:53 10° NNE 05:18:26 87° ESE 05:22:15 21° SSW
Cosmos 2173 Rocket 4.1 05:13:08 10° N 05:19:15 74° E 05:25:22 10° SSE
Cosmos 1898 Rocket 4.2 05:14:55 13° S 05:19:28 54° ESE 05:24:37 10° NNE
Meteor 1-15 Rocket 4.4 05:16:56 10° N 05:22:31 74° ENE 05:28:08 10° SSE
ADEOS Rocket 3.5 05:17:18 10° NNE 05:24:31 73° ESE 05:30:57 10° S
CENTAUR R/B 3.4 05:17:55 10° NW 05:25:38 68° NE 05:33:55 10° SE
Cosmos 2058 Rocket 3.1 05:21:32 10° N 05:25:55 76° E 05:30:16 10° SSE
Lacrosse 5 rocket 3.3 05:25:09 19° NW 05:26:12 20° NNW 05:29:34 10° NNE
Cosmos 1459 Rocket 4.0 05:19:55 10° N 05:26:21 85° E 05:32:39 10° S
Okean-O 3.7 05:23:08 10° NNE 05:27:24 44° E 05:31:37 10° S
CZ-4B R/B 3.0 05:25:52 10° N 05:30:17 75° WNW 05:32:25 31° SSW
NOSS 3-2 (C) 4.2 05:23:50 10° NW 05:30:56 45° WSW 05:38:29 10° S
Cosmos 1937 Rocket 4.4 05:26:51 10° S 05:31:52 50° ESE 05:36:57 10° NNE
SL-16 R/B 4.4 05:37:22 12° NW 05:37:22 12° NW 05:38:09 10° NW
ARIANE 5 R/B 4.2 05:32:45 10° NNW 05:35:10 16° NW 05:35:10 16° NW
Cosmos 1666 2.7 05:34:59 10° NNW 05:38:48 57° W 05:41:53 15° S
USA 116 4.4 05:37:41 10° SSE 05:42:45 78° ENE 05:47:19 10° N
Cosmos 1025 Rocket 3.5 05:42:12 37° W 05:42:48 39° WNW 05:46:53 10° N
Meteor 1-19 Rocket 4.5 05:41:26 26° SW 05:44:11 46° WNW 05:49:35 10° N
CZ-4B R/B 3.2 05:39:17 10° N 05:44:36 61° WNW 05:49:08 15° SSW
EXPRESS MD2 3.2 05:43:31 38° WNW 05:44:42 89° SW 05:50:19 10° ESE
Okean 2 3.3 05:42:54 23° SSW 05:45:23 64° W 05:49:31 10° N
Cosmos 2237 Rocket 3.3 05:41:36 10° NW 05:48:07 22° SW 05:50:53 10° SSW
ADEOS II 2.2 05:41:37 10° NNE 05:46:54 77° ESE 05:52:10 10° S
ATLAS 5 CENTAUR R/B 3.1 05:45:47 22° WNW 05:48:35 31° WSW 05:54:10 10° S
ASTRO F (AKARI) 4.3 05:49:27 10° S 05:52:34 55° WSW 05:55:47 10° NNW
Meteor 2-4 Rocket 4.0 05:50:01 12° SSW 05:55:14 52° WNW 06:01:02 10° N
NOSS 3-4 (A) 4.1 05:52:51 23° W 05:56:17 40° NW 06:02:31 10° NNE
NOSS 3-4 (C) 4.1 05:52:56 23° W 05:56:23 41° NW 06:02:37 10° NNE
Cosmos 1626 Rocket 4.0 05:53:15 10° S 05:57:35 63° E 06:01:53 10° NNE
Okean O Rocket 2.5 05:54:37 10° N 05:58:25 29° WNW 05:59:43 25° W
Cosmos 1606 Rocket 4.3 05:55:30 10° NNW 05:59:18 29° W 06:02:19 14° SW
Meteor 1-23 Rocket 4.4 05:56:45 10° SSW 06:02:10 49° WNW 06:07:43 10° N
Meteor PRIRODA 3.6 05:59:00 10° NNE 06:02:45 87° WNW 06:06:28 10° SSW
SL-16 R/B 2.5 06:01:36 10° NW 06:06:56 42° WSW 06:12:12 10° S
Meteor 2-15 Rocket 4.4 06:01:53 10° S 06:07:57 89° W 06:14:04 10° N
CZ-2D R/B 4.0 06:06:38 10° NW 06:08:24 12° NW 06:09:00 11° WNW
Cosmos 1726 Rocket 4.4 06:06:10 10° NNW 06:09:53 27° W 06:13:33 10° SSW
NOSS 8 (A) 4.4 06:07:20 15° SSW 06:10:03 84° ESE 06:13:37 10° NE
Cosmos 2298 Rocket 4.4 06:14:29 10° SW 06:19:34 45° WNW 06:24:40 10° N
Cosmos 2227 Rocket 3.5 06:17:32 15° W 06:20:38 23° NW 06:25:06 10° N
Cosmos 1602 Rocket 3.5 06:16:47 10° SSW 06:21:12 72° W 06:25:38 10° N
Cosmos 2233 Rocket 4.4 06:15:03 10° N 06:21:20 69° E 06:27:31 10° SSE
Aureole 2 Rocket 3.2 06:19:00 10° NW 06:21:58 27° WSW 06:24:42 10° SSW
Cosmos 1346 Rocket 4.1 06:21:06 16° WSW 06:22:55 21° WNW 06:26:00 10° NNW
RESURS DK-1 4.0 06:21:26 15° W 06:23:15 19° NW 06:26:16 10° N
Cosmos 1802 Rocket 4.4 06:20:38 10° NNW 06:26:17 39° W 06:31:52 10° SSW
PSLV R/B 4.2 06:22:40 10° N 06:26:37 34° WNW 06:30:29 10° SW
Tiangong 1 1.0 06:25:49 16° W 06:28:04 67° S 06:31:06 10° ESE
SKYMED 2 3.9 06:24:11 10° SSE 06:28:30 71° ENE 06:32:50 10° N
Thor Agena Rocket 4.4 06:24:43 10° SSW 06:29:13 28° W 06:33:45 10° NW
Cosmos 2297 Rocket 3.3 06:25:41 13° WSW 06:29:41 26° NW 06:34:24 10° N
SeaSat 1 3.8 06:26:06 10° SE 06:30:45 43° NE 06:35:25 10° NNW
Cosmos 990 Rocket 4.0 06:28:25 10° SSW 06:33:38 65° WNW 06:38:52 10° NNE
MOS 1 Rocket 3.4 06:30:01 10° N 06:34:44 61° WNW 06:39:44 10° SSW
Ariane Rocket 3.6 06:31:00 10° NNE 06:36:06 63° ESE 06:41:09 10° S
Cosmos 1725 Rocket 4.1 06:30:44 10° NNW 06:36:54 58° W 06:43:00 10° S
Cosmos 972 Rocket 4.3 06:32:03 10° SSW 06:37:34 76° WNW 06:43:51 10° NNE
Cosmos 2228 4.0 06:34:18 10° NNW 06:37:55 25° W 06:41:30 10° SW
Meteor 1-22 Rocket 4.4 06:35:23 10° N 06:40:53 79° E 06:46:35 10° SSE
COBE Rocket 4.0 06:37:01 10° N 06:41:41 51° WNW 06:46:12 10° SSW
Cosmos 1812 Rocket 3.8 06:40:26 10° NNW 06:44:45 50° W 06:49:03 10° SSW
Cosmos 1174 3.8 06:43:25 10° NW 06:46:14 35° WSW 06:49:17 10° S
Cosmos 1943 3.5 06:44:05 10° NNW 06:49:44 76° ENE 06:55:22 10° SSE
Cosmos 2098 Rocket 4.2 06:46:43 10° NW 06:49:56 23° W 06:53:43 10° SW
Lacrosse 5 3.2 06:46:08 10° WNW 06:50:22 26° NNW 06:54:37 10° NE
